Weather Service Report


141 
ASUS42 KFFC 280203
RWRGA 
WEATHER ROUNDUP FOR GEORGIA
NATIONAL WEATHER SERVICE PEACHTREE CITY GA
1000 PM EDT SAT AUG 27 2016

NOTE: "FAIR" INDICATES FEW OR NO CLOUDS BELOW 12,000 FEET WITH NO
SIGNIFICANT WEATHER AND/OR OBSTRUCTIONS TO VISIBILITY. 

* = USE WITH CAUTION. THE STATIONS MARKED WITH AN ASTERISK MAY NOT
REPORT WEATHER SUCH AS PRECIPITATION, FOG, OR THUNDER AND ARE NOT 
QUALITY CONTROLLED BY NWS.

THE REMARK "TC" DENOTES TEMPERATURE READING IN DEGREES CELSIUS.

GAZ001>058-280300-
NORTH GEORGIA
  
CITY           SKY/WX    TMP DP  RH WIND       PRES   REMARKS
ATLANTA        PTCLDY    85  71  63 E12       30.10R HX  90           
ATHENS         CLEAR     79  75  87 E5        30.11R                  
CHAMBLEE       CLEAR     83  70  64 VRB5      30.11R                  
PEACHTREE CITY CLEAR     75  72  90 CALM      30.09R                  
ROME           CLEAR     82  71  69 CALM      30.08R                  
WEST ATLANTA   PTCLDY    81  70  69 CALM      30.09R                  
GAINESVILLE    CLEAR     82  69  64 NE6       30.16R                  
CARTERSVILLE   CLEAR     78  70  76 CALM      30.10R                  

  
CITY           SKY/WX    TMP DP  RH WIND       PRES   REMARKS
DALTON*        CLEAR     77  70  78 CALM      30.10R                  
MARIETTA       PTCLDY    83  71  67 NE2       30.11R                  
KENNESAW*      CLEAR     82  70  65 E3        30.07                   
CANTON*        CLEAR     79  61  53 CALM      30.15R                  
BLAIRSVILLE*     N/A    N/A N/A N/A MISG      30.21R                  
$$

GAZ059>098-102>109-280300-
CENTRAL GEORGIA
  
CITY           SKY/WX    TMP DP  RH WIND       PRES   REMARKS
AUGUSTA-BUSH   CLEAR     77  71  82 SE7       30.07R                  
AUGUSTA-DANIEL CLEAR     87  69  54 E5        30.10R HX  91           
COLUMBUS       MOCLDY    83  65  54 NE5       30.04R                  
MACON          CLEAR     80  64  58 E6        30.06R                  
ROBINS AFB     CLEAR     78  69  72 E3        30.05R                  

  
CITY           SKY/WX    TMP DP  RH WIND       PRES   REMARKS
LAGRANGE*      MOCLDY    76  72  85 CALM      30.07R                  
MILLEDGEVILLE* CLEAR     79  70  73 CALM      30.07S                  
$$

GAZ099>101-110>166-280300-
SOUTH GEORGIA
  
CITY           SKY/WX    TMP DP  RH WIND       PRES   REMARKS
SAVANNAH       PTCLDY    80  73  79 E8        30.07R                  
VALDOSTA       CLOUDY    81  75  82 NE7       30.03R                  
ALMA           CLEAR     76  72  87 CALM      30.06R                  
ST SIMONS      PTCLDY    82  76  81 E10       30.04R                  
FT STEWART     CLEAR     78  73  84 NE2       30.05R                  
ALBANY         PTCLDY    82  70  66 CALM      30.05R                  
HUNTER AFB     CLEAR     80  78  95 NE5       30.05R                  
MOODY AFB      CLOUDY    79  71  75 E7        30.03R                  
BRUNSWICK      CLEAR     79  77  94 E6        30.06R                  

  
CITY           SKY/WX    TMP DP  RH WIND       PRES   REMARKS
BAINBRIDGE*    CLOUDY    81  73  78 CALM      30.01R                  
MOULTRIE*      PTCLDY    82  72  69 E3        30.04R                  
VIDALIA*       CLEAR     81  73  78 SE3       30.08R                  
WAYCROSS*        N/A     80  78  93 NE3       30.05R                  
DOUGLAS*       CLEAR     79  72  78 E3        30.07R                  
$$
  

Return to Home page


Western Regional Climate Center, wrcc@dri.edu